Location: Lawrenceville
(33.9572°N, 83.9896°W)
Time: 00:57:44
(UTC+00:00)

Hubble Space Telescope - Pass Details

Date: 21 April 2024
Orbit: 512 x 515 km, 28.5° (Epoch: 19 May)

Event Time Altitude Azimuth Distance (km) Brightness Sun altitude
Rises 01:09:33 0° 258° (WSW) 2,604 5.2 -12.2°
Reaches altitude 10° 01:12:49 10° 230° (SW) 1,716 3.7 -12.8°
Maximum altitude 01:14:41 13° 202° (SSW) 1,535 3.1 -13.1°
Drops below altitude 10° 01:16:32 10° 174° (S) 1,713 3.0 -13.5°
Enters shadow 01:16:59 - 168° (SSE) 1,803 3.1 -13.6°
